{"data":{"norad_id":50842,"epoch":"2026-09-20T00:29:40.278048Z","epoch_age_seconds":89667,"freshness":"FRESH","line1":"1 50842U 22001AR  26263.02060507 -.00002224  00000+0 -59968-4 0  9995","line2":"2 50842  53.1617  12.0225 0001040  80.8867 279.2252 15.31676168259793","mean_motion":15.31676168,"eccentricity":0.000104,"inclination_deg":53.1617,"raan_deg":12.0225,"arg_perigee_deg":80.8867,"mean_anomaly_deg":279.2252,"bstar":-5.9968e-5,"rev_number":25979,"period_min":94.014650752208,"perigee_km":470.09874750271,"apogee_km":471.52332869464,"semimajor_km":6848.9480380987,"source":"CELESTRAK","updated_at":"2026-09-20T09:00:39.582091Z"}}